Weather History for CYCB - May, 2013

Change the Weather History Date:

Friday, May 3, 2013

  Actual Average Record
Temperature  
Mean Temperature -8 °F -  
Max Temperature 1 °F 11 °F 26 °F (2000)
Min Temperature -18 °F 0 °F -18 °F (2013)
Degree Days  
Heating Degree Days 74    
Moisture  
Dew Point -15 °F    
Average Humidity 69    
Maximum Humidity 78    
Minimum Humidity 55    
Precipitation  
Precipitation 0.00 in - - ()
Sea Level Pressure  
Sea Level Pressure 30.39 in    
Wind  
Wind Speed 5 mph ()    
Max Wind Speed 9 mph    
Max Gust Speed -    
Visibility 14.3 miles    
Events      
Averages and records for this station are not official NWS values.
T = Trace of Precipitation, MM = Missing Value Source: Averaged Metar Reports

Daily Weather History Graph

Daily Weather History Graph

Search for Another Location

Airport or City:

Trip Planner

Search our weather history database for the weather conditions in past years. The results will help you decide how hot, cold, wet, or windy it might be!

Date:

Astronomy

May. 03, 2013 Rise Set
Actual Time 3:31 AM MDT 10:27 PM MDT
Civil Twilight 1:29 AM MDT 12:24 AM MDT
Nautical Twilight Sun does not rise Sun does not rise
Astronomical Twilight Sun does not rise Sun does not rise
Moon 3:27 AM MDT (5/3) 1:04 PM MDT (5/3)
Length of Visible Light 22h 55m
Length of Day
18h 56m
Last Quarter, 36% of the Moon is Illuminated
May 3
Last Quarter
May 9
New
May 17
First Quarter
May 24
Full
May 31
Last Quarter

Hourly Weather History & Observations

Time (MDT) Temp. Windchill Dew Point Humidity Pressure Visibility Wind Dir Wind Speed Gust Speed Precip Events Conditions
12:00 AM -10 °F - -17 °F 58% 30.26 in 15 mi North 5.8 mph - -   Scattered Clouds
12:00 AM -9.4 °F -24.3 °F -16.6 °F 71% 30.26 in 15.0 mi North 6.9 mph - N/A   Partly Cloudy
1:00 AM -13.0 °F -31.3 °F -20.2 °F 70% 30.27 in 15.0 mi North 9.2 mph - N/A   Partly Cloudy
2:00 AM -16.6 °F -31.3 °F -23.8 °F 70% 30.29 in 15.0 mi NW 5.8 mph - N/A   Partly Cloudy
3:00 AM -14.8 °F -32.2 °F -22.0 °F 70% 30.31 in 10.0 mi NW 8.1 mph - N/A   Partly Cloudy
4:00 AM -16.6 °F -34.4 °F -23.8 °F 70% 30.33 in 10.0 mi WNW 8.1 mph - N/A   Clear
5:00 AM -16.6 °F -29.3 °F -23.8 °F 70% 30.35 in 10.0 mi WNW 4.6 mph - N/A   Clear
6:00 AM -16 °F - -23 °F 55% 30.36 in 15 mi West 4.6 mph - -  
6:00 AM -16.6 °F -29.3 °F -23.8 °F 70% 30.36 in 15.0 mi West 4.6 mph - N/A   Clear
7:00 AM -14.8 °F -24.8 °F -22.0 °F 70% 30.37 in 15.0 mi West 3.5 mph - N/A   Clear
8:00 AM -11.2 °F -23.0 °F -18.4 °F 70% 30.38 in 15.0 mi West 4.6 mph - N/A   Clear
9:00 AM -13.0 °F -22.7 °F -20.2 °F 70% 30.39 in 15.0 mi WNW 3.5 mph - N/A   Partly Cloudy
10:00 AM -7.6 °F -22.1 °F -14.8 °F 71% 30.40 in 15.0 mi WSW 6.9 mph - N/A   Partly Cloudy
11:00 AM -7.6 °F -20.6 °F -13.0 °F 77% 30.41 in 10.0 mi West 5.8 mph - N/A   Partly Cloudy
12:00 PM -5 °F - -12 °F 57% 30.43 in 15 mi WSW 5.8 mph - -   Scattered Clouds
12:00 PM -5.8 °F -16.7 °F -13.0 °F 71% 30.43 in 15.0 mi WSW 4.6 mph - N/A   Scattered Clouds
1:00 PM -2.2 °F -14.2 °F -9.4 °F 71% 30.43 in 15.0 mi West 5.8 mph - N/A   Scattered Clouds
2:00 PM -2.2 °F -16.8 °F -7.6 °F 78% 30.44 in 15.0 mi West 8.1 mph - N/A   Partly Cloudy
3:00 PM -0.4 °F -10.4 °F -7.6 °F 72% 30.45 in 15.0 mi West 4.6 mph - N/A   Partly Cloudy
4:00 PM 1.4 °F -9.9 °F -7.6 °F 66% 30.44 in 15.0 mi West 5.8 mph - N/A   Partly Cloudy
5:00 PM 1.4 °F -6.2 °F -7.6 °F 66% 30.44 in 15.0 mi West 3.5 mph - N/A   Partly Cloudy
6:00 PM 0 °F - -7 °F 58% 30.43 in 15 mi SSW 3.5 mph - -   Scattered Clouds
6:00 PM -0.4 °F -8.3 °F -7.6 °F 72% 30.43 in 15.0 mi SSW 3.5 mph - N/A   Partly Cloudy
7:00 PM -0.4 °F -8.3 °F -7.6 °F 72% 30.44 in 15.0 mi SW 3.5 mph - N/A   Partly Cloudy
8:00 PM -0.4 °F - -7.6 °F 72% 30.43 in 15.0 mi Calm Calm - N/A   Clear
9:00 PM -2.2 °F - -7.6 °F 78% 30.43 in 15.0 mi South 2.3 mph - N/A   Partly Cloudy
10:00 PM -5.8 °F -14.5 °F -13.0 °F 71% 30.43 in 15.0 mi East 3.5 mph - N/A   Partly Cloudy
11:00 PM -9.4 °F -18.6 °F -14.8 °F 77% 30.41 in 15.0 mi ENE 3.5 mph - N/A   Partly Cloudy